Weather in Privolzhsky

Russia / Volgograd Oblast     48°14′23″N   44°34′39″E
temp.,
°C
wind,
m/s
gust,
m/s
humid.,
%
clouds,
%
prec.,
mm/h
press.,
hPa
HPBL,
m
2 march, tue
tue200:00−2nw22700 0.0 102757
03:00−2w35720 0.0 1027161
06:00−3w48810 0.0 1026306
09:00−1w7107217 0.0 1025676
12:00+3w9116086 0.0 10221042
15:00+4wsw10146288 0.0 10191231
18:00+2wsw81571100 0.0 1017851
21:00+2w101676100 0.0 1015841
3 march, wed
wed300:000wsw91596100 0.2 1013674
03:00+1w91396100 0.3 1012752
06:00+1w71196100 0.6 1010560
09:00+1wnw5897100 0.9 1011372
12:00+2nnw7980100 0.3 1012872
15:00+1nw81067100 0.4 10141223
18:000nw6117999 0.1 1016615
21:00−2nw5107976 0.2 1019654
4 march, thu
thu400:00−3nw611750 0.0 1020713
03:00−3wnw510740 0.0 1022562
06:00−3w610750 0.0 1022348
09:000wsw812610 0.0 1023707
12:00+4wsw912510 0.0 1021997
15:00+5wsw912510 0.0 10201137
18:00+2wsw614640 0.0 1019410
21:00+1sw614730 0.0 1019378
5 march, fri
fri500:00+1sw816750 0.0 1018468
03:00+1sw816740 0.0 1017534
06:00+1sw8157695 0.0 1016455
09:00+3wsw9157297 0.0 1017580
12:00+7wsw9136186 0.0 1016941
15:00+8wsw8125343 0.0 10161139
18:00+5sw511650 0.0 1015315
21:00+4sw6146912 0.0 1016398
6 march, sat
sat600:00+3sw7147478 0.0 1015381
03:00+3sw9177486 0.0 1014533
06:00+3sw91777100 0.0 1012564
09:00+4wsw101574100 0.0 1012872
12:00+7wsw81271100 0.0 1011730
15:00+7wsw61079100 0.1 1011795
18:00+2nnw7995100 1.3 1012436
21:000n5895100 2.3 1013510